Time,TemperatureF,DewpointF,PressureIn,WindDirection,WindDirectionDegrees,WindSpeedMPH,WindSpeedGustMPH,Humidity,HourlyPrecipIn,Conditions,Clouds,dailyrainin,SoftwareType,DateUTC
2013-01-24 00:02:00,51.0,50.0,30.31,ENE,71,0.0,0.0,96,0.00,,,0.00,,2013-01-24 06:02:00,
2013-01-24 00:12:00,51.0,50.0,30.31,ENE,71,0.0,0.0,96,0.00,,,0.00,,2013-01-24 06:12:00,
2013-01-24 00:22:00,51.0,50.0,30.31,ENE,71,0.0,0.0,96,0.00,,,0.00,,2013-01-24 06:22:00,
2013-01-24 00:32:00,51.0,50.0,30.32,ENE,71,0.0,0.0,95,0.00,,,0.00,,2013-01-24 06:32:00,
2013-01-24 00:42:00,51.0,50.0,30.32,ENE,71,0.0,0.0,95,0.00,,,0.00,,2013-01-24 06:42:00,
2013-01-24 00:52:00,50.0,49.0,30.32,ENE,71,0.0,0.0,95,0.00,,,0.00,,2013-01-24 06:52:00,
2013-01-24 01:02:00,49.0,48.0,30.31,ENE,71,0.0,0.0,96,0.00,,,0.00,,2013-01-24 07:02:00,
2013-01-24 01:12:00,49.0,48.0,30.31,ENE,71,0.0,0.0,96,0.00,,,0.00,,2013-01-24 07:12:00,
2013-01-24 01:23:00,49.0,48.0,30.31,ENE,71,0.0,0.0,97,0.00,,,0.00,,2013-01-24 07:23:00,
2013-01-24 01:33:00,48.0,47.0,30.31,ENE,71,0.0,0.0,97,0.00,,,0.00,,2013-01-24 07:33:00,
2013-01-24 01:42:00,48.0,47.0,30.31,ENE,71,0.0,0.0,97,0.00,,,0.00,,2013-01-24 07:42:00,
2013-01-24 01:52:00,48.0,47.0,30.31,ENE,71,0.0,0.0,97,0.00,,,0.00,,2013-01-24 07:52:00,
2013-01-24 02:02:00,48.0,47.0,30.30,ENE,71,0.0,0.0,98,0.00,,,0.00,,2013-01-24 08:02:00,
2013-01-24 02:12:00,48.0,47.0,30.30,ENE,71,0.0,0.0,98,0.00,,,0.00,,2013-01-24 08:12:00,
2013-01-24 02:22:00,48.0,47.0,30.30,ENE,71,0.0,0.0,98,0.00,,,0.00,,2013-01-24 08:22:00,
2013-01-24 02:33:00,47.0,46.0,30.30,ENE,71,0.0,0.0,98,0.00,,,0.00,,2013-01-24 08:33:00,
2013-01-24 02:42:00,47.0,46.0,30.30,ENE,71,0.0,0.0,98,0.00,,,0.00,,2013-01-24 08:42:00,
2013-01-24 02:52:00,47.0,46.0,30.30,ENE,71,0.0,0.0,98,0.00,,,0.00,,2013-01-24 08:52:00,
2013-01-24 03:03:00,47.0,47.0,30.30,ENE,71,0.0,0.0,99,0.00,,,0.00,,2013-01-24 09:03:00,
2013-01-24 03:12:00,47.0,47.0,30.30,ENE,71,0.0,0.0,99,0.00,,,0.00,,2013-01-24 09:12:00,
2013-01-24 03:23:00,47.0,47.0,30.30,ENE,71,0.0,0.0,99,0.00,,,0.00,,2013-01-24 09:23:00,
2013-01-24 03:33:00,47.0,47.0,30.30,ENE,71,0.0,0.0,99,0.00,,,0.00,,2013-01-24 09:33:00,
2013-01-24 03:43:00,47.0,47.0,30.30,ENE,71,0.0,0.0,99,0.00,,,0.00,,2013-01-24 09:43:00,
2013-01-24 03:53:00,47.0,47.0,30.30,ENE,71,0.0,0.0,99,0.00,,,0.00,,2013-01-24 09:53:00,
2013-01-24 04:03:00,47.0,47.0,30.30,ENE,71,0.0,0.0,99,0.00,,,0.00,,2013-01-24 10:03:00,
2013-01-24 04:12:00,47.0,47.0,30.30,ENE,71,0.0,0.0,99,0.00,,,0.00,,2013-01-24 10:12:00,
2013-01-24 04:23:00,48.0,48.0,30.30,ENE,70,0.0,0.0,99,0.00,,,0.00,,2013-01-24 10:23:00,
2013-01-24 04:33:00,48.0,48.0,30.30,ENE,71,0.0,0.0,99,0.00,,,0.00,,2013-01-24 10:33:00,
2013-01-24 04:43:00,48.0,48.0,30.30,ENE,71,0.0,0.0,99,0.00,,,0.00,,2013-01-24 10:43:00,
2013-01-24 04:52:00,47.0,47.0,30.30,ENE,71,0.0,0.0,99,0.00,,,0.00,,2013-01-24 10:52:00,
2013-01-24 05:02:00,48.0,48.0,30.30,ENE,71,0.0,0.0,99,0.00,,,0.00,,2013-01-24 11:02:00,
2013-01-24 05:12:00,48.0,48.0,30.30,ENE,71,0.0,0.0,99,0.00,,,0.00,,2013-01-24 11:12:00,
2013-01-24 05:23:00,48.0,48.0,30.30,ENE,71,0.0,0.0,99,0.00,,,0.00,,2013-01-24 11:23:00,
2013-01-24 05:33:00,48.0,48.0,30.31,ENE,71,0.0,0.0,99,0.00,,,0.00,,2013-01-24 11:33:00,
2013-01-24 05:43:00,48.0,48.0,30.31,ENE,71,0.0,0.0,99,0.00,,,0.00,,2013-01-24 11:43:00,
2013-01-24 05:52:00,49.0,49.0,30.32,ENE,71,0.0,0.0,99,0.00,,,0.00,,2013-01-24 11:52:00,
2013-01-24 06:03:00,50.0,50.0,30.32,ENE,71,0.0,0.0,99,0.00,,,0.00,,2013-01-24 12:03:00,
2013-01-24 06:12:00,50.0,50.0,30.32,ENE,71,0.0,0.0,99,0.00,,,0.00,,2013-01-24 12:12:00,
2013-01-24 06:22:00,51.0,51.0,30.34,ENE,71,0.0,0.0,100,0.00,,,0.00,,2013-01-24 12:22:00,
2013-01-24 06:33:00,51.0,51.0,30.34,ENE,71,0.0,0.0,99,0.00,,,0.00,,2013-01-24 12:33:00,
2013-01-24 06:43:00,51.0,51.0,30.34,ENE,71,0.0,0.0,99,0.00,,,0.00,,2013-01-24 12:43:00,
2013-01-24 06:53:00,50.0,49.0,30.33,ENE,71,0.0,0.0,98,0.00,,,0.00,,2013-01-24 12:53:00,
2013-01-24 07:03:00,49.0,48.0,30.32,ENE,71,0.0,0.0,98,0.00,,,0.00,,2013-01-24 13:03:00,
2013-01-24 07:13:00,49.0,48.0,30.32,ENE,71,0.0,0.0,98,0.00,,,0.00,,2013-01-24 13:13:00,
2013-01-24 07:23:00,50.0,50.0,30.33,ENE,70,0.0,0.0,99,0.00,,,0.00,,2013-01-24 13:23:00,
2013-01-24 07:33:00,50.0,50.0,30.33,ENE,70,0.0,0.0,99,0.00,,,0.00,,2013-01-24 13:33:00,
2013-01-24 07:42:00,50.0,50.0,30.33,ENE,70,0.0,0.0,99,0.00,,,0.00,,2013-01-24 13:42:00,
2013-01-24 07:53:00,50.0,50.0,30.34,ENE,71,0.0,0.0,99,0.00,,,0.00,,2013-01-24 13:53:00,
2013-01-24 08:02:00,50.0,50.0,30.34,ENE,70,0.0,1.0,99,0.00,,,0.00,,2013-01-24 14:02:00,
2013-01-24 08:12:00,50.0,50.0,30.34,ENE,70,0.0,1.0,99,0.00,,,0.00,,2013-01-24 14:12:00,
2013-01-24 08:23:00,51.0,51.0,30.33,ENE,71,0.0,0.0,99,0.00,,,0.00,,2013-01-24 14:23:00,
2013-01-24 08:33:00,52.0,52.0,30.34,ENE,71,0.0,1.0,99,0.00,,,0.00,,2013-01-24 14:33:00,
2013-01-24 08:43:00,52.0,52.0,30.34,ENE,71,0.0,1.0,99,0.00,,,0.00,,2013-01-24 14:43:00,
2013-01-24 08:53:00,54.0,53.0,30.35,ENE,71,0.0,0.0,98,0.00,,,0.00,,2013-01-24 14:53:00,
2013-01-24 09:03:00,55.0,54.0,30.34,SE,146,0.0,0.0,96,0.00,,,0.00,,2013-01-24 15:03:00,
2013-01-24 09:12:00,55.0,54.0,30.34,SE,146,0.0,0.0,96,0.00,,,0.00,,2013-01-24 15:12:00,
2013-01-24 09:23:00,56.0,54.0,30.35,WSW,255,0.0,1.0,92,0.00,,,0.00,,2013-01-24 15:23:00,
2013-01-24 09:33:00,56.0,54.0,30.35,WSW,255,0.0,1.0,92,0.00,,,0.00,,2013-01-24 15:33:00,
2013-01-24 09:43:00,59.0,55.0,30.35,South,174,0.0,4.0,88,0.00,,,0.00,,2013-01-24 15:43:00,
2013-01-24 09:53:00,61.0,56.0,30.35,SW,223,0.0,3.0,85,0.00,,,0.00,,2013-01-24 15:53:00,
2013-01-24 10:03:00,63.0,57.0,30.35,WNW,292,0.0,4.0,80,0.00,,,0.00,,2013-01-24 16:03:00,
2013-01-24 10:12:00,63.0,57.0,30.35,WNW,292,0.0,4.0,80,0.00,,,0.00,,2013-01-24 16:12:00,
2013-01-24 10:23:00,65.0,57.0,30.35,WSW,240,1.0,4.0,76,0.00,,,0.00,,2013-01-24 16:23:00,
2013-01-24 10:33:00,65.0,57.0,30.35,WSW,240,1.0,4.0,76,0.00,,,0.00,,2013-01-24 16:33:00,
2013-01-24 10:42:00,65.0,57.0,30.35,WSW,240,1.0,4.0,76,0.00,,,0.00,,2013-01-24 16:42:00,
2013-01-24 11:02:00,68.0,58.0,30.35,WNW,297,1.0,5.0,70,0.00,,,0.00,,2013-01-24 17:02:00,
2013-01-24 11:12:00,68.0,58.0,30.35,WNW,297,1.0,5.0,70,0.00,,,0.00,,2013-01-24 17:12:00,
2013-01-24 11:22:00,68.0,58.0,30.35,WNW,297,1.0,5.0,70,0.00,,,0.00,,2013-01-24 17:22:00,
2013-01-24 11:32:00,70.0,59.0,30.35,WNW,298,2.0,7.0,68,0.00,,,0.00,,2013-01-24 17:32:00,
2013-01-24 11:42:00,70.0,59.0,30.35,WNW,298,2.0,7.0,68,0.00,,,0.00,,2013-01-24 17:42:00,
2013-01-24 11:52:00,70.0,59.0,30.34,West,281,1.0,13.0,68,0.00,,,0.00,,2013-01-24 17:52:00,
2013-01-24 12:02:00,71.0,59.0,30.32,SE,133,2.0,5.0,66,0.00,,,0.00,,2013-01-24 18:02:00,
2013-01-24 12:12:00,71.0,59.0,30.31,West,281,2.0,8.0,65,0.00,,,0.00,,2013-01-24 18:12:00,
2013-01-24 12:22:00,71.0,59.0,30.31,West,281,2.0,8.0,65,0.00,,,0.00,,2013-01-24 18:22:00,
2013-01-24 12:33:00,72.0,60.0,30.30,WSW,243,1.0,6.0,65,0.00,,,0.00,,2013-01-24 18:33:00,
2013-01-24 12:42:00,72.0,60.0,30.30,WSW,243,1.0,6.0,65,0.00,,,0.00,,2013-01-24 18:42:00,
2013-01-24 12:53:00,72.0,59.0,30.29,West,264,1.0,4.0,64,0.00,,,0.00,,2013-01-24 18:53:00,
2013-01-24 13:02:00,72.0,59.0,30.29,West,264,1.0,4.0,64,0.00,,,0.00,,2013-01-24 19:02:00,
2013-01-24 13:12:00,72.0,59.0,30.29,West,264,1.0,4.0,64,0.00,,,0.00,,2013-01-24 19:12:00,
2013-01-24 13:22:00,72.0,60.0,30.27,WNW,301,1.0,3.0,65,0.00,,,0.00,,2013-01-24 19:22:00,
2013-01-24 13:33:00,72.0,60.0,30.27,WNW,301,1.0,3.0,65,0.00,,,0.00,,2013-01-24 19:33:00,
2013-01-24 13:42:00,72.0,60.0,30.27,WNW,301,1.0,3.0,65,0.00,,,0.00,,2013-01-24 19:42:00,
2013-01-24 13:53:00,72.0,60.0,30.27,NW,325,2.0,4.0,65,0.00,,,0.00,,2013-01-24 19:53:00,
2013-01-24 14:02:00,71.0,59.0,30.26,SSE,165,0.0,2.0,65,0.00,,,0.00,,2013-01-24 20:02:00,
2013-01-24 14:11:00,71.0,59.0,30.26,SSE,165,0.0,2.0,65,0.00,,,0.00,,2013-01-24 20:11:00,
2013-01-24 14:22:00,72.0,59.0,30.25,WSW,250,0.0,5.0,64,0.00,,,0.00,,2013-01-24 20:22:00,
2013-01-24 14:32:00,72.0,59.0,30.24,South,191,1.0,5.0,63,0.00,,,0.00,,2013-01-24 20:32:00,
2013-01-24 14:42:00,72.0,59.0,30.24,South,191,1.0,5.0,63,0.00,,,0.00,,2013-01-24 20:42:00,
2013-01-24 14:52:00,72.0,59.0,30.24,SW,219,1.0,4.0,63,0.00,,,0.00,,2013-01-24 20:52:00,
2013-01-24 15:02:00,72.0,60.0,30.23,SSW,198,1.0,3.0,65,0.00,,,0.00,,2013-01-24 21:02:00,
2013-01-24 15:12:00,72.0,60.0,30.23,SSW,198,1.0,3.0,65,0.00,,,0.00,,2013-01-24 21:12:00,
2013-01-24 15:22:00,71.0,59.0,30.23,WSW,246,0.0,5.0,65,0.00,,,0.00,,2013-01-24 21:22:00,
2013-01-24 15:33:00,71.0,59.0,30.23,SW,215,1.0,3.0,65,0.00,,,0.00,,2013-01-24 21:33:00,
2013-01-24 15:43:00,71.0,59.0,30.23,SW,215,1.0,3.0,65,0.00,,,0.00,,2013-01-24 21:43:00,
2013-01-24 15:52:00,72.0,59.0,30.24,SSW,200,1.0,4.0,64,0.00,,,0.00,,2013-01-24 21:52:00,
2013-01-24 16:03:00,71.0,59.0,30.23,SW,231,1.0,3.0,65,0.00,,,0.00,,2013-01-24 22:03:00,
2013-01-24 16:12:00,71.0,59.0,30.23,SW,231,1.0,3.0,65,0.00,,,0.00,,2013-01-24 22:12:00,
2013-01-24 16:22:00,71.0,59.0,30.23,South,176,0.0,3.0,65,0.00,,,0.00,,2013-01-24 22:22:00,
2013-01-24 16:32:00,71.0,59.0,30.23,SW,217,0.0,3.0,65,0.00,,,0.00,,2013-01-24 22:32:00,
2013-01-24 16:42:00,71.0,59.0,30.23,SW,217,0.0,3.0,65,0.00,,,0.00,,2013-01-24 22:42:00,
2013-01-24 16:53:00,71.0,59.0,30.22,SSW,193,0.0,3.0,65,0.00,,,0.00,,2013-01-24 22:53:00,
2013-01-24 17:02:00,70.0,58.0,30.22,SSE,158,2.0,4.0,66,0.00,,,0.00,,2013-01-24 23:02:00,
2013-01-24 17:12:00,70.0,58.0,30.22,SSE,158,2.0,4.0,66,0.00,,,0.00,,2013-01-24 23:12:00,
2013-01-24 17:22:00,70.0,58.0,30.22,SSE,158,2.0,4.0,66,0.00,,,0.00,,2013-01-24 23:22:00,
2013-01-24 17:32:00,69.0,58.0,30.22,SE,131,0.0,2.0,69,0.00,,,0.00,,2013-01-24 23:32:00,
2013-01-24 17:42:00,69.0,58.0,30.22,SE,131,0.0,2.0,69,0.00,,,0.00,,2013-01-24 23:42:00,
2013-01-24 17:52:00,68.0,58.0,30.23,South,173,0.0,1.0,71,0.00,,,0.00,,2013-01-24 23:52:00,
2013-01-24 18:02:00,67.0,58.0,30.23,South,174,0.0,0.0,74,0.00,,,0.00,,2013-01-25 00:02:00,
2013-01-24 18:12:00,67.0,58.0,30.23,South,174,0.0,0.0,74,0.00,,,0.00,,2013-01-25 00:12:00,
2013-01-24 18:22:00,66.0,58.0,30.24,South,173,0.0,0.0,76,0.00,,,0.00,,2013-01-25 00:22:00,
2013-01-24 18:32:00,65.0,59.0,30.24,South,173,0.0,0.0,80,0.00,,,0.00,,2013-01-25 00:32:00,
2013-01-24 18:42:00,65.0,59.0,30.24,South,173,0.0,0.0,80,0.00,,,0.00,,2013-01-25 00:42:00,
2013-01-24 18:52:00,64.0,58.0,30.24,South,173,0.0,0.0,82,0.00,,,0.00,,2013-01-25 00:52:00,
2013-01-24 19:02:00,63.0,58.0,30.25,South,173,0.0,0.0,85,0.00,,,0.00,,2013-01-25 01:02:00,
2013-01-24 19:12:00,63.0,58.0,30.25,South,173,0.0,0.0,85,0.00,,,0.00,,2013-01-25 01:12:00,
2013-01-24 19:22:00,63.0,58.0,30.25,South,173,0.0,0.0,85,0.00,,,0.00,,2013-01-25 01:22:00,
2013-01-24 19:32:00,63.0,58.0,30.26,ESE,118,0.0,1.0,83,0.00,,,0.00,,2013-01-25 01:32:00,
2013-01-24 19:42:00,63.0,58.0,30.26,ESE,118,0.0,1.0,83,0.00,,,0.00,,2013-01-25 01:42:00,
2013-01-24 19:52:00,64.0,58.0,30.26,South,172,0.0,4.0,81,0.00,,,0.00,,2013-01-25 01:52:00,
2013-01-24 20:02:00,64.0,58.0,30.27,WSW,242,0.0,2.0,81,0.00,,,0.00,,2013-01-25 02:02:00,
2013-01-24 20:11:00,64.0,58.0,30.27,WSW,242,0.0,2.0,81,0.00,,,0.00,,2013-01-25 02:11:00,
2013-01-24 20:22:00,64.0,58.0,30.26,SSW,193,1.0,3.0,80,0.00,,,0.00,,2013-01-25 02:22:00,
2013-01-24 20:32:00,64.0,58.0,30.26,SSW,203,0.0,2.0,81,0.00,,,0.00,,2013-01-25 02:32:00,
2013-01-24 20:42:00,64.0,58.0,30.26,SSW,203,0.0,2.0,81,0.00,,,0.00,,2013-01-25 02:42:00,
2013-01-24 20:53:00,64.0,58.0,30.26,SW,219,0.0,3.0,81,0.00,,,0.00,,2013-01-25 02:53:00,
2013-01-24 21:02:00,64.0,58.0,30.26,SW,219,0.0,3.0,81,0.00,,,0.00,,2013-01-25 03:02:00,
2013-01-24 21:12:00,63.0,57.0,30.25,SW,229,1.0,5.0,82,0.00,,,0.00,,2013-01-25 03:12:00,
2013-01-24 21:22:00,63.0,57.0,30.25,SW,229,1.0,5.0,82,0.00,,,0.00,,2013-01-25 03:22:00,
2013-01-24 21:33:00,63.0,57.0,30.25,SW,229,1.0,5.0,82,0.00,,,0.00,,2013-01-25 03:33:00,
2013-01-24 21:42:00,63.0,57.0,30.25,SW,229,1.0,5.0,82,0.00,,,0.00,,2013-01-25 03:42:00,
2013-01-24 21:52:00,62.0,57.0,30.25,SSW,204,0.0,2.0,83,0.00,,,0.00,,2013-01-25 03:52:00,
2013-01-24 22:02:00,61.0,56.0,30.26,SSW,210,0.0,2.0,85,0.00,,,0.00,,2013-01-25 04:02:00,
2013-01-24 22:12:00,61.0,56.0,30.26,SSW,210,0.0,2.0,85,0.00,,,0.00,,2013-01-25 04:12:00,
2013-01-24 22:22:00,60.0,56.0,30.26,SW,219,0.0,1.0,86,0.00,,,0.00,,2013-01-25 04:22:00,
2013-01-24 22:32:00,59.0,55.0,30.26,East,86,0.0,0.0,88,0.00,,,0.00,,2013-01-25 04:32:00,
2013-01-24 22:42:00,59.0,55.0,30.26,East,86,0.0,0.0,88,0.00,,,0.00,,2013-01-25 04:42:00,
2013-01-24 22:51:00,58.0,55.0,30.26,East,89,0.0,0.0,91,0.00,,,0.00,,2013-01-25 04:51:00,
2013-01-24 23:03:00,58.0,55.0,30.26,South,169,0.0,2.0,91,0.00,,,0.00,,2013-01-25 05:03:00,
2013-01-24 23:12:00,58.0,55.0,30.26,South,169,0.0,2.0,91,0.00,,,0.00,,2013-01-25 05:12:00,
2013-01-24 23:22:00,59.0,56.0,30.26,SE,124,0.0,1.0,90,0.00,,,0.00,,2013-01-25 05:22:00,
2013-01-24 23:32:00,58.0,55.0,30.25,SE,124,0.0,1.0,91,0.00,,,0.00,,2013-01-25 05:32:00,
2013-01-24 23:43:00,58.0,55.0,30.25,SE,124,0.0,1.0,91,0.00,,,0.00,,2013-01-25 05:43:00,
2013-01-24 23:52:00,57.0,55.0,30.25,SE,124,0.0,0.0,93,0.00,,,0.00,,2013-01-25 05:52:00,